Tracking 28125 objects as of 2-Oct-2023
HD Live streaming from Space Station
objects crossing your sky now

STARLINK-2637

Track STARLINK-2637 now!
10-day predictions
STARLINK-2637 is classified as:


NORAD ID: 48356
Int'l Code: 2021-038D
Perigee: 551.4 km
Apogee: 557.3 km
Inclination: 53.1 °
Period: 95.6 minutes
Semi major axis: 6925 km
RCS: Unknown
Launch date: May 4, 2021
Source: United States (US)
Launch site: AIR FORCE EASTERN TEST RANGE (AFETR)
Your satellite tracking list
Your tracking list is empty




NASA's NSSDC Master Catalog

Two Line Element Set (TLE):
1 48356U 21038D   23275.34355896  .00010704  00000-0  73646-3 0  9993
2 48356  53.0559  34.0464 0004223  95.7675 264.3796 15.06394518133574
Source of the keplerian elements: AFSPC